Bakersfield, CA

5:04 PM PDT on June 23, 2017 (GMT -0700)
Meadows

Weather History for KBFL - November, 2012

Change the Weather History Date:

Friday, November 9, 2012

  Actual Average Record
Temperature  
Mean Temperature 52 °F 57 °F  
Max Temperature 61 °F 68 °F 88 °F (1926)
Min Temperature 43 °F 47 °F 31 °F (1903)
Degree Days  
Heating Degree Days 13    
Month to date heating degree days 32  
Since 1 July heating degree days 68  
Cooling Degree Days 0    
Month to date cooling degree days 8  
Year to date cooling degree days 2578  
Growing Degree Days 2 (Base 50)    
Moisture  
Dew Point 37 °F    
Average Humidity 59    
Maximum Humidity 82    
Minimum Humidity 36    
Precipitation  
Precipitation T in 0.02 in 0.45 in (2002)
Month to date precipitation T 0.17  
Year to date precipitation 3.66 4.98  
Since 1 July precipitation 0.04  
Snow  
Snow 0.00 in - - ()
Month to date snowfall 0.0  
Since 1 July snowfall 0.0  
Since 1 September snowfall 0.0  
Snow Depth 0.00 in    
Sea Level Pressure  
Sea Level Pressure 29.93 in    
Wind  
Wind Speed 6 mph (NNW)    
Max Wind Speed 18 mph    
Max Gust Speed 22 mph    
Visibility 10 miles    
Events      
T = Trace of Precipitation, MM = Missing Value Source: NWS Daily Summary

Daily Weather History Graph

Daily Weather History Graph

Search for Another Location

Airport or City:

Trip Planner

Search our weather history database for the weather conditions in past years. The results will help you decide how hot, cold, wet, or windy it might be!

Date:

Astronomy

Nov. 09, 2012 Rise Set
Actual Time 6:26 AM PST 4:53 PM PST
Civil Twilight 5:59 AM PST 5:20 PM PST
Nautical Twilight 5:28 AM PST 5:50 PM PST
Astronomical Twilight 4:58 AM PST 6:20 PM PST
Moon 1:39 AM PST (11/9) 2:01 PM PST (11/9)
Length of Visible Light 11h 20m
Length of Day
10h 27m
Waning Crescent, 22% of the Moon is Illuminated
Nov 9
Waning Crescent
Nov 13
New
Nov 20
First Quarter
Nov 28
Full
Dec 6
Last Quarter

Hourly Weather History & Observations

Time (PST) Temp. Windchill Dew Point Humidity Pressure Visibility Wind Dir Wind Speed Gust Speed Precip Events Conditions
12:54 AM 52.0 °F - 43.0 °F 71% 29.91 in 10.0 mi NNW 15.0 mph - N/A   Partly Cloudy
1:54 AM 51.1 °F - 44.1 °F 77% 29.91 in 10.0 mi NNW 9.2 mph - N/A   Scattered Clouds
2:54 AM 50.0 °F - 37.9 °F 63% 29.91 in 10.0 mi North 13.8 mph - N/A   Mostly Cloudy
3:54 AM 50.0 °F - 39.0 °F 66% 29.91 in 10.0 mi North 9.2 mph - N/A   Mostly Cloudy
4:54 AM 46.9 °F - 39.0 °F 74% 29.93 in 10.0 mi NNW 6.9 mph - N/A   Partly Cloudy
5:54 AM 43.0 °F - 37.0 °F 80% 29.94 in 10.0 mi Calm Calm - N/A   Clear
6:54 AM 44.1 °F - 37.0 °F 76% 29.95 in 10.0 mi Calm Calm - N/A   Clear
7:54 AM 48.0 °F - 41.0 °F 77% 29.96 in 10.0 mi Calm Calm - N/A   Overcast
8:54 AM 50.0 °F - 39.9 °F 68% 29.96 in 10.0 mi Calm Calm - N/A   Mostly Cloudy
9:54 AM 53.1 °F - 37.0 °F 55% 29.96 in 10.0 mi East 3.5 mph - N/A   Clear
10:54 AM 55.9 °F - 36.0 °F 47% 29.95 in 10.0 mi SE 4.6 mph - N/A   Clear
11:54 AM 57.0 °F - 34.0 °F 42% 29.92 in 10.0 mi Variable 3.5 mph - N/A   Partly Cloudy
12:54 PM 57.9 °F - 32.0 °F 37% 29.89 in 10.0 mi Calm Calm - N/A   Clear
1:54 PM 57.9 °F - 35.1 °F 42% 29.88 in 10.0 mi North 5.8 mph - 0.00 in   Partly Cloudy
2:54 PM 60.1 °F - 33.1 °F 36% 29.87 in 10.0 mi NW 11.5 mph - N/A   Clear
3:54 PM 57.0 °F - 36.0 °F 45% 29.88 in 10.0 mi North 15.0 mph - N/A   Clear
4:54 PM 53.1 °F - 36.0 °F 52% 29.90 in 10.0 mi NNE 9.2 mph - N/A   Clear
5:54 PM 51.1 °F - 35.1 °F 54% 29.92 in 10.0 mi NNE 5.8 mph - N/A   Clear
6:54 PM 46.9 °F - 35.1 °F 63% 29.94 in 10.0 mi WNW 5.8 mph - N/A   Clear
7:54 PM 46.0 °F 43.1 °F 36.0 °F 68% 29.96 in 10.0 mi West 5.8 mph - N/A   Scattered Clouds
8:54 PM 44.1 °F 41.5 °F 36.0 °F 73% 29.98 in 10.0 mi NW 4.6 mph - N/A   Mostly Cloudy
9:54 PM 46.0 °F 43.9 °F 37.0 °F 71% 29.99 in 10.0 mi NNW 4.6 mph - N/A   Scattered Clouds
10:54 PM 48.0 °F - 37.0 °F 66% 29.99 in 10.0 mi Calm Calm - N/A   Mostly Cloudy
11:54 PM 46.9 °F - 36.0 °F 66% 29.99 in 10.0 mi North 6.9 mph - N/A   Mostly Cloudy